カタログに戻る

CZ-4C DEB

運用中SSO
NORAD 43265·DEBRIS·🇨🇳 China

打ち上げ Mar 31, 2018 から Taiyuan Satellite Launch Center

Loading…

次のパス (今後24時間)

TLE

最新Source: Space-Track

元期: Sep 14, 2026, 04:29 UTC

1 43265U 18031G   26257.18749990  .00005925  00000-0  42240-3 0  9998
2 43265  97.7652 341.5554 0007678 329.6969  30.3812 15.04935442457827

AllMySatでCZ-4C DEBをリアルタイム追跡

Download on the App Store